Regional Weather Roundup
Issued by NWS State College, PA

Home | Current Version | Previous Version | Text Only | Print | Product List | Glossary Off
Versions: 1 2 3 4 5 6 7 8 9 10 11 12 13 14 15 16 17 18 19 20 21 22 23 24 25 26 27 28 29 30 31 32 33 34 35 36 37 38 39 40 41 42 43 44 45 46 47 48 49 50

509
ASUS41 KCTP 191710
RWRCTP

REGIONAL WEATHER ROUNDUP
NATIONAL WEATHER SERVICE STATE COLLEGE PA
100 PM EDT THU APR 19 2018

Note: "fair" indicates few or no clouds below 12,000 feet with no
significant weather and/or obstructions to visibility.

* = STATION THAT DOES NOT REPORT PRECIPITATION /E.G. RAIN...SNOW...ETC/
    THUNDER OR FOG.

PAZ002>004-007>009-013>016-020>023-029>032-191800-
WESTERN PENNSYLVANIA

CITY           SKY/WX    TMP DP  RH WIND       PRES   REMARKS
ERIE           CLOUDY    37  26  64 NW9       30.04R
MEADVILLE      CLOUDY    34  24  67 NW13G24   30.00R
FRANKLIN*      CLOUDY    33  23  66 NW15      29.98R
NEW CASTLE     CLOUDY    36  28  73 NW15      30.04R
BEAVER COUNTY  NOT AVBL
BUTLER*        LGT RAIN  34  28  79 W8G16     30.01R
PITTSBURGH INT CLOUDY    36  28  73 NW14      30.02R
PITTSBURGH     CLOUDY    35  28  75 NW13G24   30.01R
INDIANA*       CLOUDY    34  28  80 N10G22    30.00R
LATROBE        CLOUDY    34  32  93 NW8G22    30.01R
WASHINGTON CO* CLOUDY    37  27  67 NW12      30.07R
$$

PAZ004>006-010>012-017>019-024>028-033>037-041-042-045-046-049>053-191800-
CENTRAL PENNSYLVANIA

CITY           SKY/WX    TMP DP  RH WIND       PRES   REMARKS
BRADFORD       LGT SNOW  30  22  72 NW16      29.88R
DUBOIS         CLOUDY    31  26  82 NW15G23   29.91R
CLEARFIELD     LGT RAIN  36  28  73 W13       29.90R
JOHNSTOWN      LGT SNOW  30  27  88 NW18G31   29.88S FOG
ALTOONA        LGT SNOW  39  32  76 NW20G30   29.89R
STATE COLLEGE  PTSUNNY   41  34  75 W9G23     29.86R
WILLIAMSPORT   LGT RAIN  41  34  76 NW17G24   29.84R
SELINSGROVE    CLOUDY    42  34  73 NW10      29.84R
FT INDIANTOWN  NOT AVBL
CAPITAL CITY   LGT RAIN  45  37  73 NW16G22   29.83R
HARRISBURG     LGT RAIN  44  39  82 NW12G23   29.82R
YORK           LGT RAIN  43  40  89 N12       29.82R FOG
$$

PAZ038>040-043-044-047-048-054-055-060>062-067>071-191800-
EASTERN PENNSYLVANIA

CITY           SKY/WX    TMP DP  RH WIND       PRES   REMARKS
SCRANTON       LGT RAIN  37  35  92 NW9       29.78R FOG
MOUNT POCONO   LGT SNOW  33  32  96 W12G21    29.70S FOG
ALLENTOWN      LGT RAIN  42  36  79 NW9       29.78R
QUAKERTOWN*    CLOUDY    41  39  93 W7        29.76R FOG
READING        LGT RAIN  42  40  92 NW13      29.79R
LANCASTER      LGT RAIN  43  39  86 NW10      29.80R
COATESVILLE    DRIZZLE   45  41  87 NW15G21   29.77R
POTTSTOWN      LGT RAIN  43  41  93 NW8       29.78R FOG
BLUE BELL      CLOUDY    43  39  87 NW3       29.77R
DOYLESTOWN     LGT RAIN  42  38  85 NW10      29.75R
WILLOW GROVE   NOT AVBL
NORTH PHILA    LGT RAIN  47  40  76 NW13      29.77R
PHILADELPHIA   CLOUDY    48  39  71 N13       29.75R
$$




USA.gov is the U.S. government's official web portal to all federal, state and local government web resources and services.